Weather reports worldwide

Advertisment
London/Heathrow Intl, United Kingdom (3772): temperature & dewpoint: 11.12.2017 23:00:00 - 17.12.2017 23:00:00 (GMT)London/Heathrow Intl, United Kingdom (3772): wind speed & gusts: 11.12.2017 23:00:00 - 17.12.2017 23:00:00 (GMT)London/Heathrow Intl, United Kingdom (3772): wind direction: 11.12.2017 23:00:00 - 17.12.2017 23:00:00 (GMT)London/Heathrow Intl, United Kingdom (3772): reduced air pressure: 11.12.2017 23:00:00 - 17.12.2017 23:00:00 (GMT)London/Heathrow Intl, United Kingdom (3772): visibility: 11.12.2017 23:00:00 - 17.12.2017 23:00:00 (GMT)London/Heathrow Intl, United Kingdom (3772): sunshine duration: 11.12.2017 23:00:00 - 17.12.2017 23:00:00 (GMT)London/Heathrow Intl, United Kingdom (3772): precipitation: 11.12.2017 23:00:00 - 17.12.2017 23:00:00 (GMT)
Date & Time tt [°C] td [°C] ff [km/h] ff [kn] fx [km/h] fx [kn] dd ppp [hPa] vv [km] sd [min] rr [mm]
17.12.2017 23:00:00 9,2 8,7 11 6 - - WNW 1020,9 7 0 0,0
17.12.2017 22:00:00 9,3 8,9 13 7 - - W 1020,2 10 0 0,0
17.12.2017 21:00:00 9,3 8,8 21 11 - - W 1020,1 9 0 0,0
17.12.2017 20:00:00 9,2 8,4 22 12 - - W 1020,0 10 0 0,0
17.12.2017 19:00:00 9,0 8,3 21 11 - - WSW 1019,5 10 0 0,0
17.12.2017 18:00:00 8,6 8,2 22 12 - - WSW 1019,6 2,9 0 0,0
17.12.2017 17:00:00 8,4 7,7 21 11 - - WSW 1019,8 4,8 0 0,4
17.12.2017 16:00:00 7,6 7,2 18 10 - - SSW 1019,9 7 0 1,4
17.12.2017 15:00:00 6,6 6,2 18 10 - - SSW 1021,0 6 0 0,4
17.12.2017 14:00:00 5,2 4,7 21 11 - - SSW 1022,0 10 0 0,6
17.12.2017 13:00:00 4,9 3,8 15 8 - - SSW 1023,6 9 0 0,4
17.12.2017 12:00:00 4,1 2,6 13 7 - - SW 1024,2 10 0 0,0
17.12.2017 11:00:00 3,3 2,2 11 6 - - S 1024,4 10 0 0,0
17.12.2017 10:00:00 2,3 1,5 13 7 - - SW 1025,2 10 0 0,0
17.12.2017 09:00:00 1,2 0,8 5 3 - - - 1025,0 6 0 0,0
17.12.2017 08:00:00 0,2 -0,1 9 5 - - S 1025,0 5 0 0,0
17.12.2017 07:00:00 0,7 0,4 4 2 - - - 1025,2 3,4 0 0,0
17.12.2017 06:00:00 0,6 0,4 5 3 - - - 1025,0 3,5 0 0,0
17.12.2017 05:00:00 0,3 0,3 5 3 - - - 1025,0 3,4 0 0,0
17.12.2017 04:00:00 -0,9 -1,1 2 1 - - SW 1024,7 3,4 0 0,0
17.12.2017 03:00:00 -0,5 -0,8 8 4 - - W 1024,5 2,7 0 0,0
17.12.2017 02:00:00 0,4 -0,2 4 2 - - - 1024,1 5 0 0,0
17.12.2017 01:00:00 1,3 0,6 4 2 - - WNW 1023,6 4,6 0 0,0
17.12.2017 00:00:00 1,1 0,5 8 4 - - W 1023,8 7 - -
16.12.2017 23:00:00 2,1 1,0 4 2 - - - 1023,1 10 0 0,0
16.12.2017 22:00:00 2,8 1,6 5 3 - - NW 1022,6 10 0 0,0
16.12.2017 21:00:00 3,5 1,5 9 5 - - WNW 1021,9 10 0 0,0
16.12.2017 20:00:00 4,5 2,4 13 7 - - W 1021,2 10 0 0,0
16.12.2017 19:00:00 5,3 2,6 11 6 - - WNW 1020,6 10 0 0,2
16.12.2017 18:00:00 5,5 2,8 11 6 - - WNW 1020,3 10 0 0,0
16.12.2017 17:00:00 5,7 2,2 16 9 - - W 1019,6 10 0 0,0
16.12.2017 16:00:00 6,0 2,0 13 7 - - WNW 1019,2 10 0 0,0
16.12.2017 15:00:00 5,3 1,9 13 7 - - W 1019,0 10 0 0,0
16.12.2017 14:00:00 5,1 1,8 15 8 - - W 1018,6 10 6 0,0
16.12.2017 13:00:00 4,9 1,3 15 8 - - W 1018,8 10 0 0,0
16.12.2017 12:00:00 4,0 -0,2 13 7 - - WNW 1018,9 10 24 0,0
16.12.2017 11:00:00 3,3 -0,6 13 7 - - WNW 1018,7 10 60 0,0
16.12.2017 10:00:00 2,2 -0,6 9 5 - - WNW 1018,5 10 36 0,0
16.12.2017 09:00:00 1,1 -0,6 11 6 - - WNW 1017,8 10 0 0,0
16.12.2017 08:00:00 0,7 -0,7 9 5 - - WNW 1016,8 10 0 0,0
16.12.2017 07:00:00 0,4 -1,1 9 5 - - WNW 1016,1 10 0 0,0
16.12.2017 06:00:00 0,8 -1,0 9 5 - - WNW 1015,4 10 0 0,0
16.12.2017 05:00:00 0,8 -1,1 11 6 - - WNW 1014,6 10 0 0,0
16.12.2017 04:00:00 0,2 -2,0 11 6 - - W 1014,4 10 0 0,0
16.12.2017 03:00:00 0,9 -1,1 8 4 - - WNW 1013,8 10 0 0,0
16.12.2017 02:00:00 1,0 -1,0 4 2 - - W 1013,2 10 0 0,0
16.12.2017 01:00:00 1,7 -0,5 9 5 - - NW 1012,3 10 0 0,0
16.12.2017 00:00:00 2,3 -0,2 11 6 - - WNW 1012,0 10 - 0,0
15.12.2017 23:00:00 2,7 0,1 11 6 - - NW 1010,9 10 0 0,0
15.12.2017 22:00:00 3,3 0,6 11 6 - - NW 1010,0 10 0 0,0
15.12.2017 21:00:00 4,0 1,2 11 6 - - N 1009,0 10 0 0,0
15.12.2017 20:00:00 4,1 1,5 15 8 - - NW 1008,2 10 0 0,0
15.12.2017 19:00:00 5,2 2,1 15 8 - - NNW 1006,9 10 0 0,0
15.12.2017 18:00:00 5,0 2,1 15 8 - - NW 1005,4 10 0 0,0
15.12.2017 17:00:00 4,7 1,5 13 7 - - NW 1004,5 10 0 0,0
15.12.2017 16:00:00 4,9 1,3 15 8 - - NW 1003,4 10 0 0,0
15.12.2017 15:00:00 5,5 1,2 18 10 - - NW 1001,9 10 54 0,0
15.12.2017 14:00:00 5,6 0,9 16 9 - - NW 1000,6 10 54 0,0
15.12.2017 13:00:00 5,6 1,0 18 10 - - NW 999,6 10 60 0,0
15.12.2017 12:00:00 5,1 1,2 18 10 - - NNW 998,8 10 54 0,0
15.12.2017 11:00:00 4,0 1,7 18 10 - - NW 998,0 10 24 0,0
15.12.2017 10:00:00 3,2 1,4 15 8 - - NW 996,9 10 0 0,0
15.12.2017 09:00:00 3,0 1,8 9 5 - - NNW 995,5 10 0 0,0
15.12.2017 08:00:00 2,8 2,0 5 3 - - - 993,8 10 0 0,6
15.12.2017 07:00:00 3,2 2,3 13 7 - - NW 992,0 5 0 0,8
15.12.2017 06:00:00 3,1 2,0 5 3 - - - 990,7 10 0 0,0
15.12.2017 05:00:00 2,8 1,4 18 10 - - WSW 990,5 10 0 0,0
15.12.2017 04:00:00 2,8 1,3 15 8 - - WSW 990,6 10 0 0,0
15.12.2017 03:00:00 2,5 1,1 16 9 - - WSW 990,7 10 0 0,0
15.12.2017 02:00:00 1,6 0,4 16 9 - - W 990,5 10 0 0,0
15.12.2017 01:00:00 1,3 0,8 15 8 - - W 990,6 10 0 0,0
15.12.2017 00:00:00 2,3 1,2 16 9 - - W 990,2 10 - 0,0
14.12.2017 23:00:00 3,0 1,7 18 10 - - W 989,7 10 0 0,0
14.12.2017 22:00:00 2,5 0,7 18 10 - - W 989,1 10 0 0,0
14.12.2017 21:00:00 2,8 1,2 13 7 - - WSW 988,8 10 0 0,0
14.12.2017 20:00:00 3,0 1,2 16 9 - - WSW 989,0 10 0 0,0
14.12.2017 19:00:00 3,0 1,1 18 10 - - SW 988,6 10 0 0,0
14.12.2017 18:00:00 3,0 0,9 16 9 - - WSW 988,6 10 0 0,0
14.12.2017 17:00:00 3,4 1,1 16 9 - - WSW 988,9 10 0 0,0
14.12.2017 16:00:00 4,1 1,1 24 13 - - WSW 989,4 10 0 0,0
14.12.2017 15:00:00 5,5 1,2 28 15 - - WSW 989,4 10 42 0,0
14.12.2017 14:00:00 6,1 1,5 22 12 - - WSW 990,2 10 18 0,0
14.12.2017 13:00:00 5,9 1,4 26 14 - - WSW 990,8 10 48 0,0
14.12.2017 12:00:00 6,2 1,9 26 14 48 26 WSW 991,7 10 48 0,0
14.12.2017 11:00:00 5,8 1,8 26 14 - - WSW 992,2 10 60 0,0
14.12.2017 10:00:00 5,0 1,8 22 12 - - WSW 992,9 10 24 0,0
14.12.2017 09:00:00 3,6 0,9 22 12 - - WSW 992,9 10 0 0,0
14.12.2017 08:00:00 4,1 1,2 22 12 - - WSW 993,1 10 0 0,0
14.12.2017 07:00:00 3,8 0,8 22 12 - - WSW 993,0 10 0 0,0
14.12.2017 06:00:00 3,9 1,2 29 16 52 28 WSW 992,9 10 0 0,0
14.12.2017 05:00:00 4,2 1,3 29 16 46 25 WSW 993,3 10 0 0,0
14.12.2017 04:00:00 4,3 1,1 28 15 46 25 WSW 993,5 10 0 0,0
14.12.2017 03:00:00 3,9 0,9 31 17 48 26 WSW 993,5 10 0 0,0
14.12.2017 02:00:00 3,3 0,5 31 17 - - WSW 993,5 10 0 0,0
14.12.2017 01:00:00 2,7 0,1 29 16 - - W 993,1 10 0 0,0
14.12.2017 00:00:00 3,6 0,0 31 17 55 30 W 992,3 10 - 0,0
13.12.2017 23:00:00 4,1 1,4 39 21 52 28 W 991,1 10 0 0,2
13.12.2017 22:00:00 3,9 2,5 24 13 59 32 WSW 990,0 10 0 1,2
13.12.2017 21:00:00 3,3 1,4 34 18 65 35 W 991,2 3,0 0 1,6
13.12.2017 20:00:00 4,5 1,8 16 9 - - SSW 991,1 10 0 0,0
13.12.2017 19:00:00 4,5 1,9 21 11 - - WSW 991,6 10 0 0,0
13.12.2017 18:00:00 4,4 1,7 31 17 - - W 992,0 10 0 0,0
13.12.2017 17:00:00 5,8 1,6 28 15 48 26 W 992,2 10 0 0,0
13.12.2017 16:00:00 7,2 3,6 26 14 70 38 W 991,7 10 0 3,2
13.12.2017 15:00:00 9,3 7,0 24 13 - - SW 990,9 10 6 0,0
13.12.2017 14:00:00 9,3 7,5 24 13 - - SW 992,4 10 0 0,0
13.12.2017 13:00:00 8,3 7,1 18 10 - - SW 994,5 10 0 0,6
13.12.2017 12:00:00 7,7 6,5 16 9 - - SSW 996,5 10 0 0,0
13.12.2017 11:00:00 7,3 6,4 16 9 - - SW 998,3 10 0 0,2
13.12.2017 10:00:00 6,9 5,9 18 10 - - SW 999,5 10 0 0,2
13.12.2017 09:00:00 6,5 5,1 15 8 - - SW 1000,2 10 0 0,2
13.12.2017 08:00:00 5,6 4,1 15 8 - - W 1000,9 10 0 0,0
13.12.2017 07:00:00 5,3 4,1 11 6 - - WSW 1001,0 10 0 0,0
13.12.2017 06:00:00 6,0 4,4 13 7 - - W 1001,1 10 0 0,0
13.12.2017 05:00:00 7,3 5,6 21 11 - - W 1001,0 10 0 0,0
13.12.2017 04:00:00 8,0 7,3 15 8 - - SW 1000,6 10 0 0,0
13.12.2017 03:00:00 7,8 7,6 16 9 - - SSW 1001,3 6 0 0,4
13.12.2017 02:00:00 7,5 7,2 24 13 - - S 1002,0 8 0 1,2
13.12.2017 01:00:00 6,6 6,3 22 12 - - S 1003,3 5 0 0,4
13.12.2017 00:00:00 5,9 4,9 16 9 - - SSW 1004,6 10 - 0,2
12.12.2017 23:00:00 6,1 5,0 15 8 - - S 1006,0 10 0 0,4
12.12.2017 22:00:00 5,5 3,9 13 7 - - S 1006,8 10 0 0,4
12.12.2017 21:00:00 4,9 2,2 16 9 - - S 1008,0 10 0 0,0
12.12.2017 20:00:00 3,6 1,1 11 6 - - S 1008,8 10 0 0,0
12.12.2017 19:00:00 3,8 1,0 13 7 - - S 1009,2 10 0 0,0
12.12.2017 18:00:00 2,9 0,1 15 8 - - S 1009,5 10 0 0,0
12.12.2017 17:00:00 3,1 0,2 13 7 - - S 1009,8 10 0 0,0
12.12.2017 16:00:00 3,6 0,0 13 7 - - SSW 1010,2 10 0 0,0
12.12.2017 15:00:00 3,6 0,1 13 7 - - S 1010,1 10 18 0,0
12.12.2017 14:00:00 4,2 0,3 13 7 - - SSW 1009,7 10 42 0,0
12.12.2017 13:00:00 4,1 0,0 11 6 - - WSW 1009,8 10 60 0,0
12.12.2017 12:00:00 3,0 -0,3 11 6 - - SW 1009,9 10 54 0,0
12.12.2017 11:00:00 1,6 -1,2 9 5 - - SW 1010,2 10 60 0,0
12.12.2017 10:00:00 0,3 -1,7 9 5 - - S 1009,4 9 36 0,0
12.12.2017 09:00:00 -1,9 -2,7 11 6 - - W 1009,1 10 0 0,0
12.12.2017 08:00:00 -2,9 -4,1 11 6 - - WSW 1008,3 7 0 0,0
12.12.2017 07:00:00 -2,3 -3,2 9 5 - - W 1006,8 9 0 0,0
12.12.2017 06:00:00 -2,2 -3,1 8 4 - - W 1005,7 9 0 0,0
12.12.2017 05:00:00 -2,2 -3,1 11 6 - - W 1005,4 10 0 0,0
12.12.2017 04:00:00 -1,8 -3,5 13 7 - - WNW 1004,3 10 0 0,0
12.12.2017 03:00:00 -3,1 -4,1 11 6 - - W 1003,2 10 0 0,0
12.12.2017 02:00:00 -1,5 -3,5 5 3 - - - 1001,9 10 0 0,0
12.12.2017 01:00:00 -1,2 -3,3 9 5 - - WNW 1000,3 10 0 0,0
12.12.2017 00:00:00 -0,8 -3,2 11 6 - - WNW 999,4 10 - 0,0
11.12.2017 23:00:00 -0,5 -3,3 15 8 - - WNW 998,3 10 0 0,0

tt = temperature
td = dewpoint
ff = wind speed
fx = gusts
dd = wind direction
ppp = reduced air pressure
vv = visibility
sd = sunshine duration
rr = precipitation

Next stations